GFSSGP_700_spd_276.txt.gz
Wind_Speed
7 5 4 2 5 8 8 8 3 18 14 16 19 11 7 4 6 4 15 14 13 11 9 11 12 11 10 10 11 12 12 13 14 14 14 15 16 17 18 20 21 20 18 16 14 12 11 11 10
4 2 2 1 8 8 20 15 18 25 18 12 13 13 7 16 10 13 12 16 15 9 8 10 10 9 8 8 9 9 10 11 12 12 13 15 16 17 19 21 22 23 21 19 17 14 12 11 10
3 2 4 1 3 6 18 13 30 24 19 15 19 20 23 19 11 9 13 14 15 11 9 9 9 9 8 7 7 7 8 8 9 10 12 13 14 15 17 19 21 23 24 23 22 19 16 12 11
0 3 4 5 10 12 13 20 18 11 13 11 12 11 18 18 11 11 12 13 14 11 9 9 9 8 7 6 6 6 6 7 7 8 10 11 11 12 13 15 17 20 23 24 24 23 17 15 12
4 3 3 5 7 12 13 17 10 10 9 6 2 4 15 16 10 11 13 13 11 9 8 7 7 6 6 6 5 5 4 5 5 6 7 8 8 8 9 11 13 16 19 21 22 22 20 18 14
2 3 2 5 3 19 8 15 2 12 8 7 3 10 14 17 16 16 14 12 12 7 6 6 6 6 6 6 6 5 4 4 4 4 5 6 6 5 6 7 9 11 13 16 18 20 19 19 18
2 7 6 7 7 13 10 9 1 7 7 7 4 8 18 16 17 19 14 12 11 9 8 6 5 5 6 6 6 4 3 3 3 3 3 4 4 4 3 4 5 7 9 11 13 16 17 19 20
4 11 10 3 18 10 12 14 8 5 4 3 7 16 17 16 14 16 17 12 9 7 5 6 5 4 4 5 5 4 3 2 1 1 1 1 1 2 2 2 1 3 5 8 10 12 14 17 18
9 14 8 0 10 16 3 3 7 6 5 8 13 14 12 14 9 11 13 12 6 7 4 1 5 5 4 4 4 4 4 3 3 2 2 2 2 3 4 6 5 4 4 7 9 11 13 16 15
16 19 12 5 7 17 2 3 8 9 11 8 19 18 19 17 9 5 7 7 8 5 7 5 2 5 5 4 4 4 4 4 4 4 4 5 5 6 7 8 9 8 7 8 10 11 12 14 14
23 24 13 8 9 12 3 9 2 13 16 9 1 12 15 17 6 5 3 2 6 7 6 5 4 2 4 6 5 6 5 5 5 6 7 7 7 7 9 9 11 12 11 11 13 13 12 11 11
25 23 14 10 9 12 14 10 2 2 9 14 12 7 6 4 8 10 4 5 6 8 12 9 5 3 5 2 4 6 6 5 5 7 9 10 9 9 9 9 12 13 12 12 14 15 15 15 12
28 21 10 9 13 15 17 15 10 9 10 15 13 9 5 5 7 22 10 13 18 15 10 14 7 3 6 7 6 5 5 5 4 4 6 8 10 10 11 10 12 12 13 13 14 16 17 18 19
23 16 19 15 11 15 15 16 11 8 7 9 8 7 9 9 11 17 20 17 14 14 12 10 13 18 10 11 7 6 3 6 6 7 8 9 9 11 12 12 13 14 15 16 17 18 19 22 22
17 20 18 16 17 18 15 16 18 13 13 10 11 13 14 13 17 15 14 14 16 18 20 11 17 21 18 18 15 10 8 9 9 9 10 8 7 9 13 15 16 17 18 19 20 20 21 24 24
17 20 22 17 16 19 17 24 17 17 19 18 18 17 13 16 20 19 19 18 19 22 15 14 18 22 20 20 19 13 13 14 15 14 14 14 13 11 14 16 18 19 20 22 23 22 21 24 25
19 22 20 23 24 23 18 28 21 17 16 24 25 22 21 23 22 23 23 24 22 19 21 22 25 24 22 23 21 21 19 18 20 21 20 19 18 12 18 19 21 21 23 23 23 23 23 25 27
23 20 21 23 13 22 29 33 25 18 22 30 30 28 26 25 21 25 28 25 22 22 22 24 27 27 28 31 30 27 23 23 24 25 24 22 21 23 17 20 22 23 25 25 24 25 26 28 30
22 21 23 24 19 26 38 40 29 26 19 30 31 30 30 30 25 23 27 29 28 28 29 28 28 26 24 28 32 30 27 28 29 29 29 27 26 26 22 20 26 24 21 24 25 25 27 30 32
22 23 26 27 26 21 23 28 30 33 29 31 34 35 34 31 27 23 24 30 32 32 31 28 28 27 24 23 28 30 32 32 31 31 28 28 28 25 28 31 26 28 25 24 25 26 29 31 33
23 27 28 30 25 20 17 17 29 31 35 37 37 33 34 33 28 28 23 25 27 30 27 23 20 20 20 20 22 24 28 31 32 34 28 30 26 31 28 27 32 29 29 32 33 34 34 34 36
28 23 27 26 24 21 20 9 18 28 34 36 36 37 37 34 34 36 33 28 24 25 22 20 20 21 21 21 23 23 24 27 28 28 30 32 31 27 35 32 34 33 33 35 35 36 36 37 40
27 23 29 28 30 23 24 12 25 20 30 40 37 36 38 39 40 42 38 30 24 23 21 21 22 22 21 20 20 20 21 24 28 27 25 29 33 32 34 32 32 32 32 32 32 34 36 37 38
27 31 32 29 30 24 29 26 32 34 27 30 37 40 42 44 46 45 40 33 28 24 21 22 21 19 19 17 17 17 19 21 23 25 24 25 26 26 27 28 30 30 31 31 31 31 32 32 34
29 27 18 12 11 8 28 33 36 37 34 35 37 35 43 47 47 51 49 39 29 24 21 20 20 17 17 18 18 18 19 21 23 23 23 24 24 24 25 25 26 26 26 27 28 28 29 29 30
31 28 21 9 5 14 30 20 41 38 40 43 42 40 39 46 52 52 48 36 30 24 20 18 18 16 16 18 19 20 21 21 22 22 21 21 19 16 14 13 13 12 13 15 17 18 20 20 22
30 35 29 32 30 14 19 33 40 37 32 33 36 39 40 47 50 53 46 32 30 23 19 18 17 15 18 19 16 17 17 16 16 16 14 12 11 11 12 13 15 16 16 17 17 19 21 21 22
36 31 29 20 4 11 8 20 28 27 25 22 24 26 31 39 48 52 41 32 28 23 18 18 17 16 16 18 15 16 13 11 11 11 10 11 12 14 16 17 18 19 20 20 20 21 23 24 25
26 34 31 29 32 11 16 17 31 36 38 35 30 29 34 34 43 46 36 30 28 24 20 20 18 16 17 16 15 15 12 9 9 8 9 11 13 16 19 20 21 22 24 24 24 24 24 26 27
28 30 24 15 16 10 9 9 15 12 14 28 28 36 41 38 44 35 30 23 27 26 23 19 15 15 17 18 17 16 9 9 9 10 11 12 15 18 21 23 26 28 29 29 29 29 29 29 29

GFSSGP_700_spd_279.txt.gz
Wind_Speed
6 3 5 5 7 10 17 9 14 17 19 16 14 13 8 6 6 4 9 13 14 14 12 12 13 12 10 8 8 8 9 10 11 13 14 15 17 18 18 19 19 19 18 17 15 14 13 12 11
5 5 3 2 9 13 6 12 14 23 22 18 14 10 8 5 7 6 14 15 17 13 11 11 12 11 9 8 7 7 7 9 10 12 12 14 15 16 17 19 21 21 21 20 18 16 14 11 11
6 7 5 3 13 13 8 21 21 15 14 12 10 9 10 10 8 10 11 14 16 13 11 10 10 10 8 7 7 7 7 7 8 10 11 12 13 14 15 18 20 21 21 21 20 18 17 14 12
5 6 3 1 8 7 1 15 20 13 18 12 8 5 5 14 11 10 11 13 14 12 10 10 9 9 8 7 6 6 6 6 7 8 9 10 10 11 12 14 17 19 20 21 23 23 22 22 20
1 4 7 4 6 11 9 15 23 17 6 5 3 10 11 16 16 12 12 13 13 11 9 8 8 8 8 7 6 5 5 5 6 6 6 7 7 7 9 11 12 14 16 18 21 21 23 23 21
1 6 6 1 10 11 10 26 18 10 5 9 2 11 15 17 15 14 13 13 13 10 8 7 7 7 7 6 5 4 3 3 3 3 4 3 4 3 4 6 8 9 11 13 16 18 20 21 20
4 7 4 11 17 2 7 27 14 11 6 11 8 11 17 17 17 14 13 13 11 9 7 5 5 4 5 5 5 4 3 3 2 2 1 1 1 2 0 2 4 5 7 9 11 14 16 18 19
7 8 2 6 14 14 9 21 19 8 11 6 9 14 16 15 16 15 14 12 11 9 8 7 4 3 3 4 4 4 3 2 1 0 1 2 2 3 4 4 4 5 6 8 10 11 13 14 15
11 10 4 4 9 13 5 16 12 5 7 6 14 18 15 17 15 12 10 11 10 8 5 3 5 4 3 3 4 3 3 2 1 2 3 3 4 5 6 7 7 8 9 10 11 11 10 12 13
17 15 7 6 8 12 2 8 5 11 8 11 22 17 14 13 16 12 12 11 9 9 8 5 2 4 3 3 4 4 3 3 3 3 3 4 5 6 7 8 9 11 13 13 13 12 11 11 11
24 21 14 6 3 8 6 7 5 8 11 9 11 7 8 11 12 12 12 9 4 3 4 3 6 4 0 2 4 4 4 4 4 4 5 6 6 7 8 9 10 11 13 15 14 14 14 13 13
27 26 19 11 4 4 7 7 4 7 6 9 11 5 8 8 5 4 6 5 6 5 6 1 1 2 2 1 3 4 6 6 5 4 5 6 7 8 10 10 11 11 13 15 14 14 14 15 15
28 28 21 18 10 8 10 14 9 8 15 15 13 9 9 9 1 1 5 9 7 6 8 6 1 2 2 2 3 2 4 5 5 3 3 3 5 8 10 12 12 12 15 15 16 16 15 16 16
28 18 27 20 16 12 8 10 10 7 21 19 15 10 11 3 4 6 5 4 7 10 9 10 5 7 5 5 3 5 5 6 4 5 6 5 6 8 7 10 13 15 16 18 18 19 19 18 18
26 25 24 26 21 15 13 15 17 12 17 18 16 17 16 12 8 12 7 9 12 15 14 13 6 11 10 9 9 9 10 9 8 10 9 8 8 10 12 12 12 15 17 20 21 22 22 22 22
23 24 25 24 16 11 13 21 20 13 18 20 20 20 21 17 14 10 11 11 11 14 16 14 13 14 18 15 13 15 15 15 15 15 14 12 13 13 21 21 19 18 19 22 24 26 26 26 26
20 19 18 23 13 13 18 24 27 19 22 25 25 23 22 18 18 17 17 18 17 18 18 17 20 17 20 22 20 20 23 23 20 19 18 18 17 18 20 21 23 21 21 26 27 27 29 29 28
21 17 21 20 20 13 16 27 27 26 23 24 28 26 26 25 22 20 21 21 21 19 20 24 21 21 22 21 23 26 24 22 22 23 23 23 23 21 24 24 25 22 24 24 24 27 28 30 30
24 23 22 28 19 20 19 21 27 27 29 28 32 31 32 28 24 27 23 19 20 23 26 24 25 27 25 23 22 23 24 26 30 31 27 26 27 27 26 28 29 27 28 30 25 22 27 28 29
22 27 29 29 19 19 23 24 29 29 38 39 34 30 34 32 32 31 28 18 19 25 26 26 29 26 25 25 23 25 29 31 31 28 27 25 28 28 27 29 30 34 34 28 26 27 30 32 36
17 22 25 25 23 26 25 27 30 20 31 36 34 32 30 31 30 31 29 25 22 26 28 26 26 26 25 22 21 24 27 26 27 28 29 27 28 24 27 25 31 26 32 32 38 33 34 34 36
17 18 21 24 29 26 18 16 22 15 22 36 37 37 37 36 33 33 33 32 28 25 28 28 26 24 22 22 23 24 26 29 29 31 29 29 26 27 24 27 31 32 33 34 35 34 33 34 35
22 18 19 24 27 31 30 14 20 21 17 28 42 41 42 43 41 37 35 36 35 30 28 26 25 24 24 23 23 24 25 25 23 21 25 22 24 23 29 28 26 29 30 31 32 34 33 34 35
23 27 27 28 26 16 27 26 28 32 27 22 20 42 44 46 45 43 41 40 40 39 35 27 25 23 24 23 20 19 18 16 18 17 19 21 23 23 24 25 26 27 29 31 31 32 33 32 31
27 28 12 9 7 8 21 24 27 31 29 28 27 24 30 47 48 49 48 45 46 44 37 30 26 24 23 20 18 16 16 17 17 18 19 20 22 22 22 23 23 24 23 23 22 22 22 23 24
27 25 16 6 4 11 30 17 33 34 35 32 31 28 28 30 36 43 50 51 51 46 39 32 27 25 21 19 16 16 17 17 18 18 18 18 18 16 14 13 13 14 14 15 17 19 20 20 21
23 26 24 28 16 15 18 38 41 37 36 33 33 35 29 31 36 40 47 53 53 46 40 33 29 25 21 20 18 15 16 16 16 15 14 13 12 10 11 11 12 13 13 14 15 16 18 19 21
28 30 29 14 4 8 8 19 24 25 30 33 36 29 29 28 25 35 44 53 50 42 38 32 28 23 22 15 17 18 16 16 15 13 13 12 11 9 11 12 13 13 14 15 16 17 18 20 21
25 24 22 23 26 9 11 15 25 28 30 35 35 34 34 38 32 26 38 50 45 40 35 28 24 21 19 16 18 18 16 15 14 12 12 13 11 11 13 15 16 17 19 20 20 22 22 23 25
21 16 14 6 10 10 15 25 27 26 16 16 26 37 35 32 28 30 42 42 38 33 27 24 19 23 19 17 16 17 18 14 13 13 14 13 12 13 15 18 21 22 23 23 24 25 26 26 28

GFSSGP_700_spd_285.txt.gz
Wind_Speed
9 9 7 5 4 5 6 4 6 8 8 9 9 8 1 2 1 2 1 8 14 14 13 12 12 13 12 11 10 10 10 10 12 13 14 14 15 17 19 21 22 23 24 23 22 18 15 13 13
8 7 4 8 6 3 2 6 3 7 7 8 8 12 5 7 7 7 5 12 16 16 14 12 12 12 11 10 8 8 8 9 11 13 13 13 14 16 18 20 22 23 25 25 24 23 20 15 13
6 4 4 7 4 2 4 7 7 8 10 11 8 9 9 3 2 6 12 14 15 16 15 12 11 11 11 10 8 8 7 8 9 11 11 11 12 13 14 16 19 20 23 24 24 23 22 18 13
6 2 3 3 5 1 4 7 10 12 11 12 10 5 8 6 10 13 13 14 15 16 15 13 11 11 11 9 8 7 7 7 8 9 9 9 9 10 11 13 15 16 19 20 22 23 21 19 17
5 3 3 3 7 2 6 9 11 16 12 10 8 7 5 8 12 13 14 14 14 13 13 11 10 10 10 9 7 6 6 6 6 7 7 6 6 7 8 10 11 12 14 15 17 20 21 16 19
4 2 3 3 8 8 7 12 14 17 12 6 9 11 6 7 13 15 15 14 13 12 11 10 9 9 9 9 7 6 6 6 6 5 5 4 4 4 5 6 8 10 11 13 14 16 17 17 15
6 3 5 7 1 5 8 13 17 17 5 6 4 4 4 6 9 15 16 15 13 12 11 10 9 8 8 8 7 6 5 5 5 5 4 2 1 1 2 5 7 9 11 13 15 15 15 14 12
6 3 6 6 8 4 7 16 15 16 10 5 1 4 4 4 5 10 13 13 13 12 11 10 9 9 8 8 7 6 5 4 4 3 3 1 1 1 3 5 7 8 10 12 13 13 13 12 10
10 7 6 4 6 4 10 16 18 14 10 8 5 8 9 7 6 7 10 11 9 8 9 9 9 9 9 8 7 5 4 4 3 2 1 0 1 2 3 5 7 8 9 10 11 12 13 13 12
14 14 8 4 5 4 7 14 20 17 13 13 11 14 14 7 7 10 12 12 13 14 11 10 8 8 8 8 7 5 5 4 3 2 1 1 2 4 5 5 7 8 8 9 11 11 12 13 12
20 18 14 7 2 4 5 11 12 15 15 13 14 17 16 11 8 16 16 15 11 11 15 14 11 9 8 7 6 4 4 3 2 2 2 3 4 6 7 8 9 10 10 10 10 11 12 13 14
23 23 19 14 10 3 6 8 13 13 8 10 18 20 16 15 6 5 14 10 13 13 14 15 15 12 10 7 6 4 4 3 3 3 3 4 5 7 8 10 11 13 13 14 14 14 15 15 16
30 27 23 20 16 9 7 7 10 9 7 10 20 17 13 12 12 8 9 13 12 11 12 14 12 11 9 6 6 6 5 4 4 4 5 5 6 7 8 9 11 12 13 15 16 17 17 18 18
27 32 31 27 21 18 12 11 11 11 10 13 16 14 12 14 14 13 6 6 11 9 7 8 10 9 8 7 7 6 5 5 6 6 7 8 8 8 10 10 13 14 14 15 16 16 17 18 20
23 21 26 31 28 25 19 18 14 15 13 19 20 19 17 15 16 8 7 9 9 9 12 8 6 11 7 6 8 8 9 9 10 10 10 11 12 11 13 13 14 15 18 17 18 20 18 20 20
21 23 18 22 27 26 23 24 17 19 17 19 21 22 20 20 15 10 11 11 13 14 10 10 8 10 13 7 7 8 9 12 14 16 15 17 16 16 17 18 18 20 20 20 23 22 22 24 24
17 13 12 18 19 22 22 20 24 22 20 20 24 24 23 24 23 14 14 11 12 14 17 14 14 12 13 17 13 12 12 13 15 17 18 20 19 19 21 22 23 25 24 24 24 24 22 24 28
11 11 12 13 12 20 22 23 22 22 21 24 25 27 28 26 27 21 18 16 14 15 18 17 18 18 19 22 22 16 16 16 15 18 20 20 20 22 24 23 23 25 28 27 26 26 26 27 30
16 17 18 19 16 22 23 22 24 21 25 26 26 28 33 28 24 27 22 21 21 17 20 19 20 18 20 23 26 19 17 18 17 17 20 19 21 25 24 23 24 25 27 30 30 31 27 31 28
15 17 19 20 14 19 24 28 27 25 23 25 27 28 27 27 27 26 24 22 19 21 18 17 20 22 23 23 24 23 21 22 19 18 21 25 26 24 26 25 26 26 29 30 30 30 27 27 29
17 21 21 18 16 16 20 27 27 27 23 19 21 25 29 28 30 25 26 24 22 22 22 19 17 22 24 24 27 24 22 22 21 23 22 19 22 21 25 29 31 32 31 30 29 27 27 26 27
17 16 14 15 16 11 8 14 20 24 26 20 20 22 25 29 31 31 27 29 26 25 27 27 22 21 23 24 26 24 22 22 23 24 21 21 22 24 25 28 28 29 27 26 28 27 26 26 26
11 8 14 18 18 19 19 13 19 17 27 24 18 13 18 28 30 28 28 31 32 29 30 31 30 26 23 23 25 25 23 22 24 23 23 22 23 23 23 23 25 23 28 26 25 25 25 23 21
19 24 23 24 23 17 24 20 21 20 23 26 23 19 15 13 26 30 30 29 29 32 32 32 34 29 28 27 28 26 24 25 24 24 23 23 24 23 21 20 22 23 23 21 21 22 21 21 21
18 14 9 8 10 15 19 18 23 15 15 18 21 18 16 19 19 21 28 30 31 33 34 37 32 28 30 29 28 28 26 25 25 24 23 24 24 20 19 19 20 20 19 16 17 18 18 18 19
14 12 11 11 10 14 17 13 20 15 16 16 17 23 24 24 24 23 25 27 31 34 36 39 33 29 31 32 32 32 28 27 25 23 24 23 22 20 19 18 17 16 14 14 15 15 16 18 20
7 9 13 20 25 17 23 28 29 28 28 29 32 28 27 29 29 24 23 28 30 32 35 38 37 35 35 40 37 36 28 25 24 22 23 22 22 19 19 15 15 14 13 14 15 15 16 18 20
9 16 9 12 9 18 17 17 19 13 16 18 21 21 22 22 23 25 26 28 29 35 37 40 40 40 42 41 39 32 22 18 18 19 19 21 19 19 17 16 15 14 15 15 15 15 17 18 20
25 13 13 11 10 9 16 18 16 18 22 26 30 32 32 32 30 31 35 34 29 31 30 32 41 45 46 40 37 28 20 19 16 20 23 27 29 21 19 17 17 16 16 15 16 17 19 20 21
6 4 9 5 9 11 10 17 14 14 10 13 18 21 22 25 28 30 31 31 31 30 29 30 37 43 40 37 36 32 29 31 27 19 17 20 23 20 21 19 19 18 18 19 19 20 22 23 24

GFSSGP_700_spd_291.txt.gz
Wind_Speed
6 3 5 1 3 8 5 15 13 9 10 9 7 6 4 4 4 4 6 13 14 13 12 11 11 12 13 13 14 14 14 13 14 15 16 16 17 19 20 21 22 22 21 19 17 15 14 13 13
6 6 3 2 8 10 8 12 15 10 6 8 5 5 4 3 6 2 5 15 15 13 12 11 11 11 12 13 13 13 12 12 13 14 14 14 15 17 18 20 21 22 22 21 21 18 16 13 13
6 5 4 15 10 4 10 10 13 9 6 5 4 4 4 5 6 7 9 15 15 14 13 11 11 11 11 12 12 12 11 11 11 12 12 11 12 13 15 16 18 19 20 20 19 21 20 19 16
8 4 7 11 3 5 8 5 14 11 5 4 2 2 8 6 6 9 12 15 13 13 13 11 10 10 10 11 11 11 10 10 10 10 9 9 9 10 11 13 14 16 17 17 17 17 18 19 18
6 6 12 15 11 4 5 6 9 14 7 5 5 3 5 4 4 9 13 14 14 13 12 10 9 9 10 10 10 9 8 8 8 7 7 5 5 7 9 10 11 12 13 14 15 15 14 16 16
8 9 15 17 13 5 5 3 1 3 4 4 4 3 4 4 4 9 13 13 14 11 11 10 9 9 9 9 9 9 8 7 7 6 5 3 3 4 5 7 8 10 11 12 12 12 12 12 13
11 14 18 19 2 5 6 6 6 5 2 4 5 6 6 3 5 8 10 13 12 10 10 10 10 9 9 9 8 8 7 6 5 5 4 2 1 2 4 6 7 8 9 10 10 11 11 10 10
14 15 20 13 13 5 4 5 8 5 4 3 6 2 4 2 5 10 12 14 13 10 10 10 9 10 10 9 8 8 7 6 5 4 4 3 1 1 3 5 6 8 9 9 10 9 9 9 9
12 15 21 15 13 7 5 9 9 10 4 3 4 6 6 4 1 10 16 16 15 13 10 10 10 10 10 9 9 8 7 6 5 5 4 3 2 3 4 6 7 9 10 10 10 10 10 10 10
17 19 18 7 10 5 5 10 13 11 10 6 7 8 6 3 2 9 16 16 17 14 13 11 10 10 10 10 10 9 8 7 6 6 4 3 4 4 6 6 8 9 10 11 11 10 10 11 10
19 23 20 10 11 9 7 7 11 14 14 10 9 12 10 4 3 11 15 15 16 15 16 14 11 11 11 11 11 10 10 9 7 6 5 6 5 5 6 7 8 9 9 10 9 9 9 13 12
23 21 22 9 9 11 7 8 11 15 13 8 8 14 13 10 2 13 16 16 16 17 17 17 14 13 13 12 12 11 10 9 8 7 7 6 6 6 6 6 6 8 9 9 9 9 9 13 15
23 22 23 18 14 13 11 10 13 14 16 7 10 16 16 14 10 14 17 16 18 17 15 17 16 15 14 12 12 11 10 9 9 8 8 7 7 7 7 7 6 7 7 8 10 10 12 14 15
19 20 24 21 21 17 14 13 13 16 16 14 13 17 16 15 17 15 17 16 15 15 12 12 14 15 14 13 12 11 11 10 9 9 9 8 9 9 10 10 10 12 12 13 16 15 18 19 20
17 21 21 29 24 22 16 18 18 17 12 14 13 18 17 18 19 18 11 11 13 14 16 14 13 12 12 13 12 11 10 10 10 10 9 10 11 12 13 14 15 17 17 17 19 21 22 19 25
15 17 21 24 26 24 20 22 21 19 17 16 15 17 18 19 21 20 21 15 15 18 17 17 16 15 13 12 12 13 13 12 13 13 13 15 17 17 17 19 19 21 20 22 23 23 24 25 27
14 18 20 18 22 26 26 26 21 19 23 20 19 18 20 20 21 23 22 21 20 19 20 19 18 17 17 17 14 12 12 10 10 11 14 15 19 20 20 22 24 25 25 25 26 26 26 26 27
14 17 14 13 18 21 25 26 26 23 23 21 23 23 21 21 23 24 25 22 20 23 22 21 22 22 19 20 21 21 21 18 15 15 16 19 20 23 23 24 25 24 27 28 27 25 25 28 31
13 13 11 10 12 10 19 22 30 29 30 24 23 26 26 25 24 24 29 28 26 24 28 25 27 26 25 26 24 24 23 22 22 23 20 22 21 24 24 24 24 25 29 29 30 30 31 31 32
12 15 18 17 17 16 19 24 24 27 30 33 31 27 29 27 28 28 29 31 37 33 27 30 28 29 29 26 27 28 28 28 26 27 25 26 26 25 24 26 28 29 31 31 27 28 25 24 23
13 15 16 17 14 14 19 24 25 26 28 32 34 33 32 32 31 30 31 35 36 39 37 34 33 31 30 31 29 30 32 32 29 28 26 28 27 28 26 24 25 26 26 27 24 23 20 21 23
15 13 13 15 16 21 15 17 18 19 20 24 29 31 31 30 30 31 31 33 43 39 41 40 38 35 32 32 34 34 35 34 33 31 30 26 29 27 25 24 23 22 23 23 24 21 20 19 19
13 12 12 14 17 19 22 19 23 20 22 22 21 23 25 26 25 24 26 29 32 37 41 42 38 40 38 35 36 36 36 34 32 33 29 25 28 29 26 25 23 22 25 24 25 21 20 19 18
12 15 18 20 23 23 25 25 27 25 23 15 16 12 16 17 20 23 21 24 30 34 38 39 37 35 34 35 35 37 36 35 35 32 26 28 28 29 29 27 25 24 25 24 25 24 21 17 17
11 13 19 18 19 15 20 22 21 8 7 1 5 4 7 9 13 9 6 11 20 27 31 32 40 38 36 35 34 34 37 37 39 35 32 34 31 30 31 30 27 27 25 27 25 24 20 18 17
10 12 18 17 14 18 25 18 10 5 3 3 6 14 20 17 18 21 20 12 8 22 29 33 37 37 36 36 34 36 37 41 40 40 36 33 32 34 30 32 31 29 27 27 26 23 21 20 21
9 11 13 18 22 25 28 28 27 2 7 3 6 19 27 27 23 23 23 23 14 11 29 22 25 29 35 36 34 34 38 42 39 39 39 35 35 36 35 35 32 30 28 25 26 24 21 22 22
8 14 16 17 18 19 22 21 6 9 12 15 13 13 24 30 32 33 35 35 36 26 29 32 30 29 28 28 30 31 34 36 38 39 36 36 38 36 36 36 35 30 26 25 26 24 21 23 22
12 7 6 13 12 13 16 16 6 6 13 20 24 25 21 20 22 27 27 24 28 33 36 38 38 34 32 29 29 29 34 38 38 38 36 36 36 37 35 34 39 31 25 24 25 24 26 25 24
3 5 8 10 11 20 21 28 12 14 10 23 29 29 28 25 25 27 30 31 31 29 28 32 39 39 36 30 30 29 36 38 39 40 39 36 37 36 37 35 31 27 24 24 23 34 30 27 27